Wind_Speed
14 15 15 15 15 15 15 14 14 14 12 11 9 10 11 11 13 10 11 12 14 14 10 6 8 8 7 8 9 6 8 6 8 22 17 12 19 16 13 11 11 12 13 9 14
19 19 19 18 19 17 17 16 17 17 13 12 11 10 12 14 16 13 12 13 17 16 16 15 13 11 9 8 10 14 4 6 10 16 13 14 16 12 11 12 11 12 14 15 10
22 23 23 23 22 23 22 22 20 19 18 16 15 12 12 15 18 16 15 15 18 18 13 11 11 10 8 10 12 13 12 6 8 12 9 3 10 12 11 11 13 14 13 17 11
22 22 23 23 23 23 23 24 24 24 24 22 18 17 16 17 18 16 17 18 17 19 19 12 11 13 13 14 14 16 17 13 12 11 10 7 10 13 12 11 13 16 13 15 16
21 21 20 21 21 21 22 23 24 25 26 26 25 21 21 23 17 19 20 21 21 19 22 23 19 18 17 17 17 14 14 15 8 16 12 13 11 15 18 17 15 13 13 14 17
18 18 19 19 21 20 21 21 22 23 24 25 26 25 27 28 24 21 21 22 24 22 21 26 27 27 26 21 21 22 20 18 12 15 8 13 12 14 17 16 16 15 14 13 18
21 22 23 24 25 24 24 23 23 23 24 24 24 23 26 30 31 26 26 25 25 28 26 28 33 33 29 26 29 25 21 19 19 19 12 17 15 13 14 16 16 14 13 13 15
26 26 26 27 28 30 31 30 31 30 28 26 25 26 25 28 30 32 30 28 28 29 31 31 32 36 35 31 32 28 26 22 21 22 13 20 17 17 18 17 19 15 12 8 8
30 31 30 32 33 32 32 32 34 37 36 34 32 31 32 30 31 31 34 34 33 33 33 36 35 33 37 37 37 36 26 25 25 25 12 23 17 20 17 16 15 16 15 11 9
31 32 34 34 34 34 33 35 36 36 37 42 39 38 38 37 37 35 33 38 39 39 38 35 36 35 35 39 40 33 26 29 29 28 24 24 22 25 18 17 16 14 14 12 10
30 32 33 33 33 35 38 39 40 40 42 42 45 47 45 44 43 42 40 39 43 45 42 39 36 34 25 30 31 33 34 31 28 30 30 26 28 27 22 19 14 14 13 12 10
33 36 36 39 41 40 41 42 44 42 45 45 44 48 52 53 51 50 47 46 45 45 48 47 38 25 37 35 32 34 36 35 32 35 35 28 30 35 25 22 22 20 18 18 15
40 43 44 46 46 48 48 48 47 47 43 40 42 45 46 52 51 55 55 52 50 49 49 51 37 37 39 40 40 38 35 33 31 37 38 34 38 37 27 30 29 26 24 19 15
44 46 47 47 46 43 45 44 39 37 42 41 38 39 40 42 48 50 56 57 56 54 51 54 47 48 44 42 42 42 33 32 36 39 42 39 39 40 33 32 31 31 27 23 17
45 46 46 44 43 36 34 35 31 29 39 36 35 31 28 34 40 45 46 54 55 58 59 55 50 56 50 40 42 35 38 38 39 43 42 46 45 42 39 40 34 31 29 29 19
46 44 42 41 37 31 26 27 30 31 36 36 34 34 32 33 34 35 44 45 52 57 62 60 55 56 56 48 46 36 44 43 45 46 56 48 50 42 39 30 32 33 33 30 23
45 39 37 34 33 27 25 28 30 31 38 39 40 37 37 38 38 40 36 46 48 55 62 65 59 61 60 56 50 49 48 50 51 57 58 48 53 45 31 32 32 35 30 24 22
42 38 34 33 31 24 26 25 31 31 34 35 38 40 38 39 40 42 43 42 49 49 56 66 66 65 63 61 56 53 54 57 59 59 56 51 61 50 32 33 37 36 31 30 26
38 37 34 30 27 23 29 32 33 34 35 37 38 39 40 41 42 43 47 45 48 52 52 60 69 68 64 63 62 60 60 54 55 55 54 56 57 46 37 38 39 34 37 38 32
35 31 30 26 22 27 33 33 33 35 37 38 39 39 40 41 42 42 45 48 46 53 57 56 67 71 67 66 64 63 57 56 60 59 57 59 54 48 37 38 43 40 35 38 35
31 30 22 19 26 33 35 32 35 39 40 41 37 37 39 39 40 42 45 47 48 48 58 58 61 69 69 67 64 63 65 61 55 56 58 58 51 40 39 34 39 41 38 39 38
25 20 21 27 33 35 33 34 40 40 40 38 35 35 38 38 40 42 46 45 47 50 54 64 61 61 71 65 63 67 63 64 65 63 60 58 49 40 39 36 37 38 38 39 40
17 21 27 32 34 30 32 36 39 38 37 34 33 35 36 35 36 37 39 40 46 47 53 63 63 59 64 64 62 66 67 64 65 62 62 56 50 43 38 39 41 41 40 41 38
21 29 32 29 30 31 30 31 33 35 33 31 31 33 32 30 31 33 32 32 32 32 42 57 64 57 60 65 70 68 70 66 67 64 61 60 43 36 38 38 41 42 42 45 40
28 29 29 32 34 34 31 31 29 29 31 31 31 29 29 30 30 31 34 33 28 29 32 43 60 59 54 61 68 64 68 66 69 63 62 56 39 33 37 33 43 44 45 45 44
27 24 25 29 36 39 37 34 32 31 27 26 25 25 27 28 30 31 33 34 31 24 31 38 47 55 53 53 64 67 67 67 67 64 62 51 40 39 39 40 41 47 52 50 48
19 19 22 28 36 36 33 30 29 28 23 24 23 23 22 25 29 30 36 32 29 28 28 37 45 47 44 50 63 64 65 69 67 64 61 49 40 42 44 43 42 38 43 48 43
Wind_Direction
294 296 295 293 293 292 292 291 291 294 297 296 291 272 264 256 257 251 235 227 234 240 239 224 209 220 220 218 203 198 171 172 205 185 180 126 160 143 145 158 152 139 131 126 133
286 286 285 284 285 285 285 284 285 285 287 287 286 277 266 260 255 246 242 231 224 221 220 218 210 208 212 215 202 188 125 165 137 162 169 163 145 155 162 164 161 152 142 131 141
286 285 284 283 281 280 278 275 275 278 279 274 278 279 270 265 260 252 240 239 227 223 228 232 214 215 219 211 211 198 206 206 166 180 164 141 159 157 162 174 158 149 145 138 136
287 287 286 285 284 282 279 276 274 272 270 270 266 269 268 266 261 263 249 241 235 223 220 218 201 207 217 216 219 214 220 229 197 197 158 176 182 176 168 167 162 145 142 157 141
294 292 291 289 287 283 279 277 275 273 269 268 264 259 262 262 262 256 254 243 240 228 218 209 208 215 215 213 221 212 199 183 205 219 194 191 191 181 170 151 135 140 146 159 140
311 307 304 302 299 298 295 290 284 275 271 268 268 262 255 256 258 253 255 248 242 232 223 213 212 213 214 208 210 214 204 203 168 164 186 194 196 171 153 141 139 145 141 160 153
305 305 306 304 302 299 294 293 291 288 281 276 271 266 259 257 256 250 250 248 243 235 224 218 214 213 213 212 210 212 209 205 193 198 206 230 194 166 160 147 142 141 137 159 155
304 301 299 301 301 297 293 292 289 284 278 277 275 275 270 260 254 250 250 252 249 245 234 226 224 218 215 211 216 218 211 207 205 210 238 208 188 172 167 150 139 126 128 153 157
305 300 299 298 295 295 291 289 286 282 280 276 275 270 271 268 264 255 246 243 245 245 242 234 226 223 221 217 220 221 214 210 211 204 211 209 194 183 176 161 147 134 132 141 135
309 304 300 297 294 291 289 284 278 278 277 271 270 271 268 267 264 258 251 244 239 241 241 239 234 230 226 225 226 230 217 217 220 212 205 214 209 198 203 191 166 157 146 136 120
306 303 302 300 299 295 288 284 279 278 273 273 268 261 264 265 263 261 254 247 241 238 241 240 237 236 242 241 237 230 229 224 224 224 216 213 230 217 198 200 190 177 152 141 121
310 311 309 309 307 302 296 293 293 285 280 275 269 262 256 259 260 258 253 249 245 241 239 239 235 229 229 227 227 228 226 223 222 230 223 212 207 207 194 187 188 180 154 150 138
311 311 311 312 310 308 305 302 299 295 291 284 274 268 261 256 254 254 249 246 244 241 239 239 231 229 230 228 225 228 222 221 219 227 233 219 211 213 209 211 208 199 191 175 157
312 313 314 313 312 310 306 302 297 295 290 287 285 279 269 258 250 249 246 244 239 237 235 236 228 226 224 225 226 225 227 222 218 222 227 227 216 223 221 222 218 217 202 181 178
312 314 315 313 310 306 302 295 290 285 286 291 294 290 280 271 261 250 247 242 236 232 232 234 229 228 225 220 226 219 226 224 222 223 223 227 227 213 217 216 218 219 200 181 166
312 312 312 310 305 303 289 287 284 279 280 290 292 288 283 277 270 263 251 242 241 231 228 228 226 229 225 218 222 213 219 220 220 222 224 220 232 210 209 217 211 214 201 175 169
309 310 309 305 299 298 288 288 288 284 283 282 285 284 280 277 274 266 260 243 240 235 228 226 223 225 226 217 216 212 213 217 218 218 220 216 229 225 199 197 191 198 193 179 176
309 313 306 299 298 284 293 287 289 285 284 284 285 283 277 269 266 262 260 259 240 238 233 227 220 224 222 222 216 215 213 220 217 218 221 216 228 228 190 191 190 196 191 191 182
314 311 308 301 291 288 299 291 288 285 286 286 286 283 276 268 263 259 260 259 251 242 238 230 221 218 222 219 218 214 214 219 225 225 224 226 226 227 198 199 191 191 187 196 184
316 313 306 299 289 294 301 296 289 288 292 288 285 279 273 270 267 261 255 252 252 248 243 237 224 219 219 217 218 215 215 217 219 222 226 228 226 228 209 196 194 186 196 202 190
316 312 305 300 301 303 300 294 293 296 293 291 287 281 275 271 266 260 256 254 251 247 248 241 231 218 217 217 214 212 214 214 223 230 228 229 227 224 216 207 200 200 208 208 202
318 317 310 308 304 305 304 297 296 294 293 292 287 279 275 275 269 264 262 254 254 250 246 239 238 224 217 219 212 214 212 216 219 222 223 229 225 218 222 214 203 201 206 212 203
324 312 313 312 313 313 306 299 296 299 299 294 287 277 275 271 266 260 258 265 265 248 234 231 232 228 214 212 213 213 210 214 217 220 224 228 223 220 218 214 207 199 203 210 205
323 320 319 320 319 315 309 304 299 301 300 297 286 278 271 265 264 260 262 264 255 232 224 225 225 225 215 213 212 210 210 211 216 219 221 225 221 205 223 216 213 206 208 207 206
325 327 326 333 332 330 326 320 311 309 309 302 291 275 270 262 263 264 259 260 260 236 227 220 224 224 216 213 211 210 209 211 215 218 223 223 212 199 210 206 210 211 209 205 206
331 335 343 349 339 334 330 328 317 308 306 302 290 277 274 270 265 265 265 269 266 251 234 217 219 223 218 210 209 209 209 210 214 216 221 220 207 192 197 206 202 204 211 213 215
346 355 3 355 345 341 336 328 322 323 320 311 297 284 274 277 274 272 267 257 256 251 231 220 215 216 206 210 207 206 209 210 215 216 220 213 196 193 195 196 195 201 210 217 220
Height
5860 5859 5858 5858 5857 5856 5856 5855 5854 5854 5854 5854 5854 5853 5853 5852 5852 5854 5856 5857 5857 5859 5861 5863 5864 5866 5867 5868 5870 5871 5873 5872 5872 5872 5876 5875 5877 5881 5883 5883 5885 5885 5886 5889 5889
5856 5855 5855 5854 5853 5853 5853 5852 5851 5850 5851 5851 5850 5850 5850 5850 5850 5852 5854 5854 5855 5855 5857 5859 5862 5864 5866 5867 5869 5871 5871 5873 5873 5874 5874 5876 5878 5879 5882 5883 5884 5885 5886 5887 5890
5852 5851 5850 5849 5849 5848 5848 5848 5848 5847 5846 5847 5847 5848 5847 5846 5846 5849 5850 5851 5851 5853 5856 5858 5861 5863 5865 5866 5868 5870 5871 5873 5875 5876 5875 5875 5877 5879 5881 5883 5884 5885 5886 5887 5890
5847 5846 5845 5844 5843 5843 5843 5843 5843 5842 5842 5842 5843 5843 5843 5843 5845 5846 5847 5847 5848 5851 5854 5857 5859 5861 5863 5865 5866 5869 5871 5872 5874 5876 5877 5879 5878 5878 5881 5884 5885 5883 5885 5888 5888
5842 5841 5840 5839 5838 5837 5837 5837 5836 5836 5836 5836 5838 5840 5839 5838 5842 5841 5842 5843 5845 5847 5849 5852 5856 5858 5859 5861 5864 5866 5869 5870 5872 5875 5878 5880 5881 5880 5881 5882 5882 5884 5885 5889 5889
5838 5837 5836 5835 5833 5832 5832 5831 5830 5830 5830 5831 5831 5833 5834 5833 5835 5837 5838 5838 5839 5842 5845 5847 5850 5852 5853 5857 5860 5862 5865 5869 5872 5874 5877 5878 5880 5879 5879 5880 5882 5883 5885 5888 5889
5834 5832 5831 5829 5828 5827 5825 5826 5825 5825 5824 5825 5826 5826 5826 5829 5829 5831 5832 5834 5834 5836 5838 5840 5842 5847 5851 5854 5854 5859 5864 5867 5870 5873 5877 5878 5880 5879 5880 5881 5883 5884 5885 5888 5889
5828 5826 5825 5823 5821 5820 5819 5819 5817 5816 5817 5819 5820 5819 5820 5820 5822 5824 5827 5828 5829 5831 5833 5836 5838 5841 5845 5850 5850 5855 5858 5863 5867 5870 5874 5878 5878 5880 5881 5882 5882 5883 5885 5888 5889
5822 5819 5819 5817 5814 5813 5812 5810 5809 5807 5808 5810 5812 5813 5814 5814 5814 5816 5818 5820 5821 5823 5826 5828 5833 5836 5839 5844 5846 5848 5857 5861 5863 5868 5872 5876 5877 5880 5880 5880 5881 5882 5884 5886 5888
5815 5812 5810 5809 5807 5805 5804 5801 5800 5798 5799 5802 5803 5806 5805 5805 5805 5806 5809 5810 5813 5814 5817 5822 5827 5832 5834 5837 5841 5848 5857 5858 5860 5865 5869 5875 5876 5877 5878 5879 5879 5881 5884 5886 5888
5808 5804 5801 5799 5797 5796 5794 5791 5790 5788 5788 5790 5792 5794 5793 5794 5794 5797 5800 5800 5803 5806 5810 5815 5819 5827 5839 5837 5841 5846 5849 5854 5858 5861 5865 5871 5873 5875 5875 5879 5880 5881 5883 5886 5888
5799 5794 5791 5787 5784 5781 5780 5777 5773 5775 5771 5776 5777 5780 5782 5780 5781 5784 5789 5790 5793 5798 5800 5804 5813 5828 5823 5826 5832 5835 5841 5848 5853 5853 5858 5863 5868 5869 5873 5875 5876 5879 5880 5884 5886
5787 5783 5779 5774 5771 5766 5764 5763 5758 5757 5758 5759 5761 5765 5766 5765 5766 5767 5773 5777 5781 5785 5790 5794 5812 5812 5814 5818 5822 5827 5834 5842 5850 5847 5849 5855 5860 5864 5869 5868 5870 5874 5876 5881 5884
5776 5772 5767 5762 5759 5753 5750 5748 5745 5743 5743 5744 5746 5749 5750 5747 5750 5751 5756 5762 5766 5772 5777 5780 5797 5797 5803 5809 5815 5819 5830 5835 5839 5840 5842 5848 5853 5856 5863 5866 5869 5870 5875 5878 5882
5765 5760 5755 5750 5748 5744 5741 5737 5735 5733 5729 5733 5732 5732 5734 5735 5734 5737 5740 5745 5749 5755 5761 5771 5784 5785 5791 5805 5807 5820 5819 5823 5829 5831 5835 5835 5839 5849 5854 5859 5866 5869 5871 5874 5879
5754 5750 5745 5742 5738 5735 5732 5729 5727 5726 5722 5724 5724 5723 5723 5722 5722 5723 5723 5728 5732 5739 5744 5756 5768 5773 5782 5792 5795 5809 5807 5810 5814 5819 5814 5827 5827 5839 5848 5859 5865 5867 5867 5870 5874
5744 5740 5735 5731 5728 5726 5724 5721 5720 5717 5716 5715 5713 5712 5711 5710 5709 5708 5712 5711 5715 5723 5729 5737 5754 5757 5766 5776 5783 5789 5794 5796 5799 5798 5801 5820 5817 5826 5847 5853 5860 5865 5868 5869 5872
5732 5727 5725 5721 5719 5717 5716 5713 5711 5709 5706 5703 5702 5698 5697 5697 5697 5696 5697 5699 5701 5705 5714 5720 5736 5743 5753 5764 5773 5777 5783 5784 5785 5790 5800 5810 5800 5813 5841 5848 5853 5860 5865 5865 5867
5722 5717 5714 5712 5709 5709 5708 5704 5701 5698 5696 5693 5690 5685 5682 5682 5683 5683 5684 5685 5689 5692 5696 5704 5717 5729 5739 5747 5756 5763 5766 5782 5784 5789 5796 5797 5800 5815 5830 5837 5846 5854 5858 5860 5862
5714 5709 5705 5703 5702 5701 5698 5693 5690 5687 5683 5680 5676 5672 5668 5667 5668 5669 5669 5673 5676 5679 5683 5687 5700 5713 5724 5734 5741 5753 5766 5766 5768 5776 5784 5786 5795 5806 5822 5831 5840 5848 5855 5858 5861
5704 5701 5698 5698 5696 5692 5687 5683 5678 5674 5669 5665 5662 5658 5655 5653 5653 5654 5654 5658 5659 5665 5669 5676 5681 5699 5710 5718 5735 5743 5745 5754 5763 5769 5776 5780 5790 5807 5818 5826 5834 5843 5851 5856 5858
5697 5696 5693 5690 5687 5682 5677 5671 5665 5659 5654 5650 5647 5643 5640 5639 5639 5640 5640 5642 5644 5649 5655 5660 5665 5680 5696 5710 5722 5726 5737 5743 5749 5756 5762 5770 5786 5799 5810 5820 5827 5834 5844 5851 5855
5693 5691 5687 5683 5677 5672 5666 5659 5652 5648 5643 5638 5634 5630 5628 5628 5627 5629 5628 5627 5629 5632 5638 5642 5650 5665 5683 5698 5705 5711 5721 5731 5740 5745 5754 5764 5778 5793 5801 5810 5817 5824 5833 5842 5848
5689 5684 5679 5674 5669 5663 5657 5651 5643 5636 5630 5625 5621 5618 5618 5616 5615 5615 5616 5614 5617 5619 5623 5626 5638 5651 5667 5680 5687 5699 5709 5721 5728 5738 5748 5755 5775 5787 5791 5800 5809 5818 5823 5828 5836
5683 5678 5670 5665 5658 5650 5645 5639 5631 5626 5619 5613 5609 5608 5606 5604 5603 5604 5603 5602 5606 5608 5611 5616 5626 5636 5653 5664 5676 5690 5703 5712 5720 5733 5739 5754 5773 5782 5784 5790 5797 5807 5815 5821 5827
5677 5673 5667 5660 5652 5643 5635 5628 5622 5616 5610 5604 5601 5598 5596 5595 5594 5592 5592 5592 5593 5596 5601 5606 5616 5626 5643 5655 5667 5681 5695 5703 5713 5726 5731 5748 5766 5768 5773 5781 5787 5794 5802 5810 5817
5675 5670 5664 5659 5651 5641 5633 5625 5618 5607 5602 5596 5592 5589 5588 5586 5584 5582 5581 5582 5583 5585 5590 5597 5606 5620 5636 5647 5659 5675 5685 5696 5706 5715 5725 5743 5760 5763 5769 5774 5779 5788 5798 5804 5811